This demonstration page uses our WeatherBlox Daily Observations layout. Learn more.

Left ArrowRight Arrow

Hourly Observations for September 3, 2017

Temp ( °F °C ) Dew Point ( °F °C ) Humidity (%) Winds ( mph kmh ) Pressure ( in mb ) Visibility ( mi km ) Precip ( " mm )
12:51 am 00:51 Clear 78 25.6 43 6.1 29 29 ENE 6 9 29.92 1013 10 16.0934 0 0
1:51 am 01:51 Clear 78 25.6 44 6.7 30 30 ESE 6 9 29.92 1013 10 16.0934 0 0
2:51 am 02:51 Clear 75 23.9 46 7.8 36 36 SSE 7 11 29.92 1013 10 16.0934 0 0
3:51 am 03:51 Clear 73 22.8 45 7.2 37 37 SE 5 7 29.92 1013 10 16.0934 0 0
4:51 am 04:51 Clear 70 21.1 45 7.2 41 41 SSE 7 11 29.94 1014 10 16.0934 0 0
5:51 am 05:51 Clear 66 18.9 45 7.2 47 47 Calm 29.96 1015 10 16.0934 0 0
6:51 am 06:51 Sunny 69 20.6 47 8.3 45 45 ENE 3 6 29.98 1015 10 16.0934 0 0
7:51 am 07:51 Sunny 77 25 46 7.8 33 33 SE 10 17 29.99 1016 10 16.0934 0 0
8:51 am 08:51 Sunny 83 28.3 46 7.8 27 27 SE 9 15 30 1016 10 16.0934 0 0
9:51 am 09:51 Sunny 88 31.1 45 7.2 22 22 SSE 7 11 29.98 1015 10 16.0934 0 0
10:51 am 10:51 Sunny 91 32.8 43 6.1 19 19 ESE 6 9 29.97 1015 10 16.0934 0 0
11:51 am 11:51 Sunny 94 34.4 43 6.1 17 17 VRB 5 7 29.95 1014 10 16.0934 0 0
12:51 pm 12:51 Sunny 96 35.6 43 6.1 16 16 VRB 3 6 29.91 1013 10 16.0934 0 0
1:51 pm 13:51 Sunny 99 37.2 42 5.6 14 14 W 6 9 29.88 1012 10 16.0934 0 0
2:51 pm 14:51 Sunny 100 37.8 40 4.4 13 13 SSE 10 17 29.85 1011 10 16.0934 0 0
3:51 pm 15:51 Sunny 100 37.8 40 4.4 13 13 VRB 6 9 29.83 1010 10 16.0934 0 0
4:51 pm 16:51 Sunny 100 37.8 40 4.4 13 13 S 6 9 29.81 1010 10 16.0934 0 0
5:51 pm 17:51 Sunny 97 36.1 39 3.9 13 13 WSW 7 11 29.82 1010 10 16.0934 0 0
6:51 pm 18:51 Clear 91 32.8 40 4.4 17 17 WSW 6 9 29.83 1010 10 16.0934 0 0
7:51 pm 19:51 Clear 83 28.3 41 5 23 23 Calm 29.85 1011 10 16.0934 0 0
8:51 pm 20:51 Clear 80 26.7 41 5 25 25 E 5 7 29.86 1011 10 16.0934 0 0
9:51 pm 21:51 Clear 78 25.6 40 4.4 26 26 ENE 6 9 29.86 1011 10 16.0934 0 0
10:51 pm 22:51 Clear 78 25.6 39 3.9 25 25 WNW 9 15 29.86 1011 10 16.0934 0 0
11:51 pm 23:51 Clear 76 24.4 47 8.3 36 36 WNW 7 11 29.85 1011 10 16.0934 0 0

Powered by AerisWeather